Flag for Germany Weather past 2 weeks in Gronau (Westfalen), North Rhine-Westphalia, Germany

Now
48 °F

Passing clouds.


Feels Like: 48 °F
Forecast: 54 / 73 °F
Wind: No wind

Location: Twenthe

Current Time: Sep 3, 2014 at 6:47:52 AM

Latest Report: Sep 3, 2014 at 6:00 AM


Visibility: 0 mi

Pressure: 30.25 "Hg

Humidity: 99%

Dew point: 47 °F

Location of Gronau (Westfalen)Location

Historic Weather in Gronau (Westfalen) — Graph

°F

Gronau (Westfalen) temperature yesterday

Maximum temperature yesterday: 68 °F (at 5:00 PM)
Minimum temperature yesterday: 45 °F (at 6:00 AM)
Average temperature yesterday: 57 °F

Past Weeks' High & Low Weather Summary

 TemperatureHumidityPressure
High72 °F (Aug 28, 3:00 PM)100% (Aug 21, 2:00 AM)30.27 "Hg (Aug 21, 2:00 AM)
Low42 °F (Aug 27, 6:00 AM)46% (Aug 27, 5:00 PM)29.67 "Hg (Aug 26, 6:00 AM)
Average56 °F86%29.97 "Hg
* Reported Aug 19 5:00 AM — Sep 3 5:00 AM, Gronau (Westfalen), Weather by CustomWeather, © 2014

Note: Actual official high and low records may vary slightly from our data, if they occured in-between our weather recording intervals... More about our weather records

Advertising

Gronau (Westfalen) weather history for previous 24 hours

 ConditionsComfort  
Time TempWeatherWind HumidityBarometerVisibility
5:00 AM
Sep 3
49 °FPassing clouds.1 mph99%30.25 "Hg0 mi
4:00 AM49 °FPassing clouds.No wind100%30.26 "Hg0 mi
3:00 AM49 °FPassing clouds.2 mph99%30.26 "Hg0 mi
2:00 AM51 °FLow clouds.1 mph99%30.26 "Hg0 mi
1:00 AM53 °FClear.2 mph99%30.26 "Hg1 mi
12:00 AM54 °FClear.1 mph99%30.27 "Hg0 mi
11:00 PM
Sep 2
55 °FClear.2 mph98%30.26 "Hg1 mi
10:00 PM61 °FPassing clouds.2 mph91%30.25 "Hg9 mi
9:00 PM62 °FOvercast.1 mph92%30.24 "Hg6 mi
8:00 PM65 °FOvercast.2 mph83%30.22 "Hg9 mi
7:00 PM66 °FScattered clouds.1 mph85%30.21 "Hg9 mi
6:00 PM67 °FOvercast.2 mph76%30.21 "Hg12 mi
5:00 PM68 °FOvercast.2 mph75%30.21 "Hg9 mi
4:00 PM67 °FOvercast.3 mph78%30.21 "Hg11 mi
3:00 PM66 °FFog.2 mph82%30.21 "Hg6 mi
2:00 PM65 °FOvercast.1 mph83%30.21 "Hg6 mi
1:00 PM63 °FFog.2 mph91%30.21 "Hg6 mi
12:00 PM62 °FFog.2 mph93%30.20 "Hg4 mi
11:00 AM60 °FLow clouds.3 mph94%30.20 "Hg4 mi
10:00 AM56 °FDrizzle. Low clouds.2 mph99%30.19 "Hg2 mi
9:00 AM54 °FFog.1 mph99%30.19 "Hg4 mi
8:00 AM49 °FOvercast.1 mph100%30.18 "Hg1 mi
7:00 AM46 °FDense fog.No wind99%30.17 "Hg0 mi
6:00 AM45 °FDense fog.No wind99%30.16 "Hg0 mi
Weather by CustomWeather, © 2014

See weather overviewHow to use our weather pages